FW9615 Weather Reports


time (UTC)temp
C
wind
direction
speed
KPH
gust
KPH
rain 1hr
cm
rain 24hr
cm
rain mn
cm
humidity
%
barometer
mb
20260505124551 18 0 0.0 3.2 0.00 0.00 0.00 61 1012.7
20260505123050 18 0 0.0 4.8 0.00 0.00 0.00 61 1012.5
20260505121554 17 155 0.0 4.8 0.00 0.00 0.00 63 1012.5
20260505120110 16 0 0.0 3.2 0.00 0.00 0.00 65 1012.5
20260505114552 16 0 0.0 1.6 0.00 0.00 0.00 66 1012.5
20260505113050 15 0 0.0 1.6 0.00 0.00 0.00 68 1012.3
20260505111553 15 0 0.0 0.0 0.00 0.00 0.00 69 1012.3
20260505101554 13 0 0.0 0.0 0.00 0.00 0.00 73 1011.7
20260505100049 13 0 0.0 0.0 0.00 0.00 0.00 73 1011.6
20260505094551 13 0 0.0 1.6 0.00 0.00 0.00 72 1011.2
20260505093055 13 0 0.0 3.2 0.00 0.00 0.00 72 1011.2
20260505091553 13 0 0.0 3.2 0.00 0.00 0.00 73 1011.3
20260505090056 13 0 0.0 0.0 0.00 0.00 0.00 73 1011.1
20260505084550 13 0 0.0 0.0 0.00 0.00 0.00 73 1011.1
20260505083054 13 0 0.0 0.0 0.00 0.00 0.00 73 1011.3
20260505081600 13 0 0.0 1.6 0.00 0.00 0.00 75 1011.2
20260505080053 12 0 0.0 1.6 0.00 0.00 0.00 78 1011.1
20260505074558 12 0 0.0 0.0 0.00 0.00 0.00 79 1011.3
20260505073103 12 0 0.0 0.0 0.00 0.00 0.00 79 1011.2
20260505071558 12 0 0.0 0.0 0.00 0.00 0.00 78 1011.1
20260505070049 12 0 0.0 0.0 0.00 0.00 0.00 76 1010.9
20260505064552 12 0 0.0 0.0 0.00 0.00 0.00 74 1011.0
20260505063048 13 0 0.0 0.0 0.00 0.00 0.00 74 1011.2
20260505061555 13 0 0.0 0.0 0.00 0.00 0.00 73 1011.1
20260505060049 13 0 0.0 0.0 0.00 0.00 0.00 71 1011.1
20260505054624 14 0 0.0 0.0 0.00 0.00 0.00 69 1011.3
20260505053102 15 0 0.0 0.0 0.00 0.00 0.00 67 1011.2
20260505051553 15 0 0.0 0.0 0.00 0.00 0.00 66 1011.3
20260505041557 13 0 0.0 1.6 0.00 0.00 0.00 70 1010.9
20260505040050 13 0 0.0 0.0 0.00 0.00 0.00 70 1011.0
20260505034547 14 0 0.0 0.0 0.00 0.00 0.00 68 1011.0
20260505033051 14 0 0.0 0.0 0.00 0.00 0.00 66 1011.1
20260505031604 15 0 0.0 0.0 0.00 0.00 0.00 64 1011.0
20260505030047 15 0 0.0 0.0 0.00 0.00 0.00 63 1011.0
20260505024548 15 0 0.0 0.0 0.00 0.00 0.00 62 1011.0
20260505023100 16 0 0.0 0.0 0.00 0.00 0.00 59 1011.0
20260505021552 16 0 0.0 0.0 0.00 0.00 0.00 58 1011.0
20260505020054 16 0 0.0 0.0 0.00 0.00 0.00 57 1011.1
20260505014556 17 0 0.0 0.0 0.00 0.00 0.00 56 1010.8
20260505013105 17 0 0.0 0.0 0.00 0.00 0.00 55 1010.7
20260505011552 17 0 0.0 0.0 0.00 0.00 0.00 52 1010.5
20260505010053 18 0 0.0 0.0 0.00 0.00 0.00 50 1010.4
20260505004556 18 0 0.0 0.0 0.00 0.00 0.00 49 1010.4
20260505003049 19 0 0.0 0.0 0.00 0.00 0.00 47 1010.3
20260505001552 20 0 0.0 3.2 0.00 0.00 0.00 47 1010.3
20260505000107 20 0 0.0 1.6 0.00 0.00 0.00 45 1010.2
20260504234546 20 181 0.0 3.2 0.00 0.00 0.00 44 1010.2
20260504233054 21 0 0.0 3.2 0.00 0.00 0.00 43 1010.3
20260504231552 21 0 0.0 6.4 0.00 0.00 0.00 43 1010.3
20260504230104 22 255 0.0 4.8 0.00 0.00 0.00 40 1010.3
20260504224552 22 243 1.6 3.2 0.00 0.00 0.00 39 1010.2
20260504223051 22 207 0.0 4.8 0.00 0.00 0.00 39 1010.2
20260504221600 22 269 0.0 6.4 0.00 0.00 0.00 40 1009.9
20260504220055 22 0 0.0 3.2 0.00 0.00 0.00 38 1010.0
20260504214548 23 177 0.0 3.2 0.00 0.00 0.00 37 1010.0
20260504213053 23 142 0.0 4.8 0.00 0.00 0.00 37 1010.0
20260504211550 23 155 0.0 4.8 0.00 0.00 0.00 37 1010.1
20260504210054 23 62 0.0 4.8 0.00 0.00 0.00 36 1010.2
20260504204549 25 160 1.6 6.4 0.00 0.00 0.00 35 1010.2
20260504203101 25 0 1.6 4.8 0.00 0.00 0.00 33 1010.3
20260504201550 25 282 1.6 9.7 0.00 0.00 0.00 35 1010.4
20260504200050 25 303 0.0 9.7 0.00 0.00 0.00 33 1010.5
20260504194549 25 127 1.6 8.0 0.00 0.00 0.00 35 1010.8
20260504193048 25 355 1.6 8.0 0.00 0.00 0.00 34 1011.1
20260504191547 25 223 1.6 6.4 0.00 0.00 0.00 32 1011.3
20260504190112 25 278 1.6 8.0 0.00 0.00 0.00 37 1011.7
20260504184551 25 135 1.6 8.0 0.00 0.00 0.00 35 1011.9
20260504183101 25 295 1.6 6.4 0.00 0.00 0.00 36 1012.1
20260504181558 25 304 3.2 8.0 0.00 0.00 0.00 32 1012.2
20260504180112 25 249 1.6 6.4 0.00 0.00 0.00 33 1012.4
20260504174557 24 0 1.6 9.7 0.00 0.00 0.00 32 1012.5
20260504173057 24 181 1.6 6.4 0.00 0.00 0.00 31 1012.6
20260504171600 24 86 1.6 4.8 0.00 0.00 0.00 34 1012.9